TimeEST,TemperatureF,Dew PointF,Humidity,Sea Level PressureIn,VisibilityMPH,Wind Direction,Wind SpeedMPH,Gust SpeedMPH,PrecipitationIn,Events,Conditions,WindDirDegrees,DateUTC
12:54 AM,46.0,39.0,76,30.32,10.0,North,9.2,-,N/A,,Mostly Cloudy,360,2012-11-15 05:54:00
1:54 AM,45.0,39.0,80,30.32,10.0,North,8.1,-,N/A,,Scattered Clouds,10,2012-11-15 06:54:00
2:54 AM,45.0,37.9,76,30.30,10.0,NNE,10.4,-,N/A,,Overcast,20,2012-11-15 07:54:00
3:54 AM,45.0,37.0,74,30.29,10.0,NNE,9.2,-,N/A,,Overcast,20,2012-11-15 08:54:00
4:54 AM,45.0,37.9,76,30.29,10.0,North,6.9,-,N/A,,Overcast,10,2012-11-15 09:54:00
5:54 AM,44.1,37.9,79,30.27,10.0,North,8.1,-,N/A,,Overcast,360,2012-11-15 10:54:00
6:01 AM,44.6,37.4,76,30.28,10.0,NNW,6.9,-,N/A,,Overcast,340,2012-11-15 11:01:00
6:43 AM,44.6,37.4,76,30.29,10.0,North,8.1,-,N/A,,Overcast,10,2012-11-15 11:43:00
6:54 AM,44.1,37.9,79,30.28,10.0,North,8.1,-,N/A,,Overcast,10,2012-11-15 11:54:00
7:54 AM,45.0,39.0,80,30.27,10.0,North,8.1,-,N/A,,Overcast,10,2012-11-15 12:54:00
8:54 AM,46.0,39.9,79,30.28,10.0,North,8.1,-,N/A,,Overcast,350,2012-11-15 13:54:00
9:54 AM,48.0,42.1,80,30.27,10.0,NNE,10.4,-,N/A,,Scattered Clouds,20,2012-11-15 14:54:00
10:54 AM,50.0,43.0,77,30.26,10.0,NE,8.1,-,N/A,,Clear,40,2012-11-15 15:54:00
11:25 AM,51.8,44.6,76,30.25,10.0,North,8.1,-,N/A,,Mostly Cloudy,360,2012-11-15 16:25:00
11:54 AM,52.0,45.0,77,30.23,10.0,North,9.2,-,0.00,Rain,Light Rain,360,2012-11-15 16:54:00
12:09 PM,53.6,46.4,77,30.23,10.0,North,9.2,-,0.00,,Overcast,350,2012-11-15 17:09:00
12:49 PM,53.6,46.4,77,30.22,10.0,North,10.4,-,0.00,,Overcast,360,2012-11-15 17:49:00
12:54 PM,54.0,46.9,77,30.22,10.0,North,9.2,-,0.00,,Overcast,360,2012-11-15 17:54:00
1:54 PM,55.0,48.0,77,30.22,10.0,NNW,6.9,-,N/A,,Overcast,330,2012-11-15 18:54:00
2:09 PM,53.6,46.4,77,30.21,10.0,NNW,8.1,-,N/A,,Overcast,340,2012-11-15 19:09:00
2:45 PM,53.6,46.4,77,30.20,10.0,North,11.5,-,N/A,,Overcast,360,2012-11-15 19:45:00
2:54 PM,54.0,46.9,77,30.21,10.0,NNW,12.7,-,N/A,,Overcast,330,2012-11-15 19:54:00
3:04 PM,53.6,46.4,77,30.22,10.0,NNW,11.5,-,N/A,,Overcast,330,2012-11-15 20:04:00
3:54 PM,53.1,46.9,80,30.21,10.0,North,9.2,-,0.00,Rain,Light Rain,350,2012-11-15 20:54:00
4:54 PM,52.0,46.9,83,30.22,10.0,NNW,9.2,-,0.00,,Overcast,340,2012-11-15 21:54:00
5:54 PM,52.0,46.9,83,30.22,10.0,North,8.1,-,0.00,Rain,Light Rain,350,2012-11-15 22:54:00
6:19 PM,51.8,48.2,88,30.22,10.0,North,9.2,-,0.00,,Overcast,360,2012-11-15 23:19:00
6:54 PM,51.1,48.0,89,30.22,9.0,NNE,6.9,-,0.01,Rain,Light Rain,20,2012-11-15 23:54:00
7:54 PM,51.1,48.9,92,30.24,10.0,NNE,6.9,-,0.08,Rain,Light Rain,20,2012-11-16 00:54:00
8:54 PM,51.1,48.0,89,30.22,10.0,NE,13.8,-,0.10,Rain,Light Rain,50,2012-11-16 01:54:00
9:54 PM,50.0,48.0,93,30.21,10.0,NE,11.5,-,0.01,Rain,Light Rain,40,2012-11-16 02:54:00
9:57 PM,50.0,48.2,94,30.21,10.0,NE,9.2,-,0.00,Rain,Light Rain,40,2012-11-16 02:57:00
10:32 PM,50.0,48.2,94,30.21,8.0,North,9.2,-,0.03,Rain,Light Rain,10,2012-11-16 03:32:00
10:46 PM,50.0,48.2,94,30.22,8.0,NNE,6.9,-,0.04,Rain,Light Rain,20,2012-11-16 03:46:00
10:54 PM,50.0,48.0,93,30.21,10.0,NNE,8.1,-,0.04,Rain,Light Rain,20,2012-11-16 03:54:00
11:51 PM,50.0,48.2,94,30.22,10.0,North,8.1,-,0.02,,Overcast,350,2012-11-16 04:51:00
11:54 PM,50.0,48.0,93,30.22,10.0,North,10.4,-,0.02,,Overcast,360,2012-11-16 04:54:00